Time,TemperatureF,DewpointF,PressureIn,WindDirection,WindDirectionDegrees,WindSpeedMPH,WindSpeedGustMPH,Humidity,HourlyPrecipIn,Conditions,Clouds,dailyrainin,SoftwareType,DateUTC
2013-08-04 00:02:00,69.0,65.0,30.08,North,351,0.0,0.0,88,0.00,,,0.01,,2013-08-04 05:02:00,
2013-08-04 00:12:00,68.0,64.0,30.09,North,351,0.0,0.0,88,0.00,,,0.01,,2013-08-04 05:12:00,
2013-08-04 00:22:00,68.0,64.0,30.09,North,351,0.0,0.0,88,0.00,,,0.01,,2013-08-04 05:22:00,
2013-08-04 00:32:00,68.0,64.0,30.09,North,351,0.0,0.0,88,0.00,,,0.01,,2013-08-04 05:32:00,
2013-08-04 00:42:00,68.0,64.0,30.09,North,351,0.0,0.0,88,0.00,,,0.01,,2013-08-04 05:42:00,
2013-08-04 00:52:00,67.0,63.0,30.09,North,351,0.0,0.0,88,0.00,,,0.01,,2013-08-04 05:52:00,
2013-08-04 01:02:00,67.0,63.0,30.09,North,351,0.0,0.0,88,0.00,,,0.01,,2013-08-04 06:02:00,
2013-08-04 01:12:00,67.0,63.0,30.09,North,351,0.0,0.0,88,0.00,,,0.01,,2013-08-04 06:12:00,
2013-08-04 01:22:00,67.0,63.0,30.09,North,351,0.0,0.0,87,0.00,,,0.01,,2013-08-04 06:22:00,
2013-08-04 01:32:00,67.0,63.0,30.10,NNW,345,0.0,0.0,86,0.00,,,0.01,,2013-08-04 06:32:00,
2013-08-04 01:43:00,67.0,63.0,30.10,NNW,345,0.0,0.0,86,0.00,,,0.01,,2013-08-04 06:43:00,
2013-08-04 01:52:00,67.0,62.0,30.10,North,355,0.0,0.0,85,0.00,,,0.01,,2013-08-04 06:52:00,
2013-08-04 02:02:00,67.0,62.0,30.10,North,355,0.0,0.0,85,0.00,,,0.01,,2013-08-04 07:02:00,
2013-08-04 02:12:00,67.0,62.0,30.10,North,355,0.0,0.0,85,0.00,,,0.01,,2013-08-04 07:12:00,
2013-08-04 02:22:00,67.0,63.0,30.10,North,360,0.0,0.0,86,0.00,,,0.01,,2013-08-04 07:22:00,
2013-08-04 02:33:00,66.0,62.0,30.10,North,360,0.0,0.0,87,0.00,,,0.01,,2013-08-04 07:33:00,
2013-08-04 02:42:00,66.0,62.0,30.10,North,360,0.0,0.0,87,0.00,,,0.01,,2013-08-04 07:42:00,
2013-08-04 02:52:00,66.0,62.0,30.10,North,360,0.0,0.0,88,0.00,,,0.01,,2013-08-04 07:52:00,
2013-08-04 03:02:00,65.0,61.0,30.10,North,360,0.0,0.0,88,0.00,,,0.01,,2013-08-04 08:02:00,
2013-08-04 03:12:00,65.0,61.0,30.10,North,360,0.0,0.0,88,0.00,,,0.01,,2013-08-04 08:12:00,
2013-08-04 03:22:00,65.0,62.0,30.10,North,360,0.0,0.0,89,0.00,,,0.01,,2013-08-04 08:22:00,
2013-08-04 03:33:00,65.0,62.0,30.10,North,360,0.0,0.0,89,0.00,,,0.01,,2013-08-04 08:33:00,
2013-08-04 03:43:00,65.0,62.0,30.10,North,360,0.0,0.0,89,0.00,,,0.01,,2013-08-04 08:43:00,
2013-08-04 03:53:00,64.0,61.0,30.11,North,360,0.0,0.0,90,0.00,,,0.01,,2013-08-04 08:53:00,
2013-08-04 04:02:00,64.0,61.0,30.10,North,360,0.0,0.0,90,0.00,,,0.01,,2013-08-04 09:02:00,
2013-08-04 04:12:00,64.0,61.0,30.10,North,360,0.0,0.0,90,0.00,,,0.01,,2013-08-04 09:12:00,
2013-08-04 04:22:00,64.0,61.0,30.11,North,360,0.0,0.0,91,0.00,,,0.01,,2013-08-04 09:22:00,
2013-08-04 04:32:00,64.0,61.0,30.11,North,360,0.0,0.0,90,0.00,,,0.01,,2013-08-04 09:32:00,
2013-08-04 04:43:00,64.0,61.0,30.11,North,360,0.0,0.0,90,0.00,,,0.01,,2013-08-04 09:43:00,
2013-08-04 04:52:00,63.0,60.0,30.11,North,360,0.0,0.0,91,0.00,,,0.01,,2013-08-04 09:52:00,
2013-08-04 05:02:00,63.0,60.0,30.11,North,360,0.0,0.0,91,0.00,,,0.01,,2013-08-04 10:02:00,
2013-08-04 05:12:00,63.0,60.0,30.11,North,360,0.0,0.0,91,0.00,,,0.01,,2013-08-04 10:12:00,
2013-08-04 05:22:00,63.0,60.0,30.11,North,355,0.0,0.0,91,0.00,,,0.01,,2013-08-04 10:22:00,
2013-08-04 05:32:00,63.0,60.0,30.12,NE,34,0.0,0.0,90,0.00,,,0.01,,2013-08-04 10:32:00,
2013-08-04 05:42:00,63.0,60.0,30.12,NE,34,0.0,0.0,90,0.00,,,0.01,,2013-08-04 10:42:00,
2013-08-04 05:53:00,62.0,59.0,30.12,NE,34,0.0,0.0,90,0.00,,,0.01,,2013-08-04 10:53:00,
2013-08-04 06:02:00,62.0,59.0,30.13,NNE,32,0.0,0.0,90,0.00,,,0.01,,2013-08-04 11:02:00,
2013-08-04 06:12:00,62.0,59.0,30.13,NNE,32,0.0,0.0,90,0.00,,,0.01,,2013-08-04 11:12:00,
2013-08-04 06:22:00,62.0,59.0,30.13,NNE,32,0.0,0.0,90,0.00,,,0.00,,2013-08-04 11:22:00,
2013-08-04 06:32:00,62.0,59.0,30.14,NNE,32,0.0,0.0,90,0.00,,,0.00,,2013-08-04 11:32:00,
2013-08-04 06:42:00,62.0,59.0,30.14,NNE,32,0.0,0.0,90,0.00,,,0.00,,2013-08-04 11:42:00,
2013-08-04 06:53:00,62.0,59.0,30.15,NNE,32,0.0,0.0,90,0.00,,,0.00,,2013-08-04 11:53:00,
2013-08-04 07:02:00,63.0,60.0,30.15,NNE,32,0.0,0.0,89,0.00,,,0.00,,2013-08-04 12:02:00,
2013-08-04 07:12:00,63.0,60.0,30.15,NNE,32,0.0,0.0,89,0.00,,,0.00,,2013-08-04 12:12:00,
2013-08-04 07:22:00,64.0,60.0,30.15,NNE,33,0.0,0.0,86,0.00,,,0.00,,2013-08-04 12:22:00,
2013-08-04 07:32:00,65.0,60.0,30.15,NNE,33,0.0,0.0,85,0.00,,,0.00,,2013-08-04 12:32:00,
2013-08-04 07:43:00,65.0,60.0,30.15,NNE,33,0.0,0.0,85,0.00,,,0.00,,2013-08-04 12:43:00,
2013-08-04 07:52:00,66.0,61.0,30.16,ENE,71,0.0,0.0,83,0.00,,,0.00,,2013-08-04 12:52:00,
2013-08-04 08:02:00,67.0,61.0,30.16,NNE,17,0.0,0.0,80,0.00,,,0.00,,2013-08-04 13:02:00,
2013-08-04 08:12:00,67.0,61.0,30.16,NNE,17,0.0,0.0,80,0.00,,,0.00,,2013-08-04 13:12:00,
2013-08-04 08:22:00,69.0,61.0,30.16,NE,53,0.0,0.0,76,0.00,,,0.00,,2013-08-04 13:22:00,
2013-08-04 08:32:00,70.0,61.0,30.16,ENE,74,0.0,0.0,73,0.00,,,0.00,,2013-08-04 13:32:00,
2013-08-04 08:43:00,70.0,61.0,30.16,ENE,74,0.0,0.0,73,0.00,,,0.00,,2013-08-04 13:43:00,
2013-08-04 08:52:00,70.0,60.0,30.17,East,94,0.0,0.0,71,0.00,,,0.00,,2013-08-04 13:52:00,
2013-08-04 09:02:00,70.0,60.0,30.17,ENE,64,0.0,0.0,71,0.00,,,0.00,,2013-08-04 14:02:00,
2013-08-04 09:12:00,70.0,60.0,30.17,ENE,64,0.0,0.0,71,0.00,,,0.00,,2013-08-04 14:12:00,
2013-08-04 09:22:00,70.0,60.0,30.17,ENE,74,0.0,0.0,70,0.00,,,0.00,,2013-08-04 14:22:00,
2013-08-04 09:32:00,71.0,60.0,30.17,East,96,0.0,0.0,69,0.00,,,0.00,,2013-08-04 14:32:00,
2013-08-04 09:43:00,71.0,60.0,30.17,East,96,0.0,0.0,69,0.00,,,0.00,,2013-08-04 14:43:00,
2013-08-04 09:53:00,72.0,60.0,30.17,ENE,78,0.0,0.0,66,0.00,,,0.00,,2013-08-04 14:53:00,
2013-08-04 10:02:00,72.0,57.0,30.17,ESE,119,0.0,0.0,60,0.00,,,0.00,,2013-08-04 15:02:00,
2013-08-04 10:12:00,72.0,57.0,30.17,ESE,119,0.0,0.0,60,0.00,,,0.00,,2013-08-04 15:12:00,
2013-08-04 10:22:00,73.0,58.0,30.17,ENE,72,0.0,0.0,59,0.00,,,0.00,,2013-08-04 15:22:00,
2013-08-04 10:32:00,73.0,58.0,30.18,East,94,0.0,0.0,59,0.00,,,0.00,,2013-08-04 15:32:00,
2013-08-04 10:43:00,73.0,58.0,30.18,East,94,0.0,0.0,59,0.00,,,0.00,,2013-08-04 15:43:00,
2013-08-04 10:53:00,73.0,58.0,30.18,East,85,0.0,0.0,60,0.00,,,0.00,,2013-08-04 15:53:00,
2013-08-04 11:02:00,74.0,60.0,30.17,ENE,71,0.0,0.0,61,0.00,,,0.00,,2013-08-04 16:02:00,
2013-08-04 11:12:00,74.0,60.0,30.17,ENE,71,0.0,0.0,61,0.00,,,0.00,,2013-08-04 16:12:00,
2013-08-04 11:22:00,75.0,60.0,30.18,ESE,109,0.0,0.0,59,0.00,,,0.00,,2013-08-04 16:22:00,
2013-08-04 11:33:00,75.0,60.0,30.18,SE,132,0.0,0.0,59,0.00,,,0.00,,2013-08-04 16:33:00,
2013-08-04 11:42:00,75.0,60.0,30.18,SE,132,0.0,0.0,59,0.00,,,0.00,,2013-08-04 16:42:00,
2013-08-04 11:53:00,74.0,58.0,30.18,East,86,0.0,0.0,57,0.00,,,0.00,,2013-08-04 16:53:00,
2013-08-04 12:02:00,76.0,60.0,30.18,NNE,18,0.0,0.0,57,0.00,,,0.00,,2013-08-04 17:02:00,
2013-08-04 12:12:00,76.0,60.0,30.18,NNE,18,0.0,0.0,57,0.00,,,0.00,,2013-08-04 17:12:00,
2013-08-04 12:22:00,76.0,59.0,30.17,ENE,61,0.0,5.0,56,0.00,,,0.00,,2013-08-04 17:22:00,
2013-08-04 12:32:00,77.0,61.0,30.17,NNE,28,0.0,0.0,58,0.00,,,0.00,,2013-08-04 17:32:00,
2013-08-04 12:43:00,77.0,61.0,30.17,NNE,28,0.0,0.0,58,0.00,,,0.00,,2013-08-04 17:43:00,
2013-08-04 12:53:00,77.0,61.0,30.17,North,5,0.0,0.0,58,0.00,,,0.00,,2013-08-04 17:53:00,
2013-08-04 13:02:00,78.0,59.0,30.16,ENE,65,0.0,0.0,52,0.00,,,0.00,,2013-08-04 18:02:00,
2013-08-04 13:12:00,78.0,59.0,30.16,ENE,65,0.0,0.0,52,0.00,,,0.00,,2013-08-04 18:12:00,
2013-08-04 13:23:00,78.0,60.0,30.16,East,94,0.0,0.0,54,0.00,,,0.00,,2013-08-04 18:23:00,
2013-08-04 13:33:00,78.0,59.0,30.15,NE,55,0.0,0.0,53,0.00,,,0.00,,2013-08-04 18:33:00,
2013-08-04 13:43:00,78.0,59.0,30.15,NE,55,0.0,0.0,53,0.00,,,0.00,,2013-08-04 18:43:00,
2013-08-04 13:52:00,77.0,57.0,30.15,North,9,0.0,1.0,50,0.00,,,0.00,,2013-08-04 18:52:00,
2013-08-04 14:02:00,78.0,59.0,30.15,NNE,13,0.0,0.0,52,0.00,,,0.00,,2013-08-04 19:02:00,
2013-08-04 14:12:00,78.0,59.0,30.15,NNE,13,0.0,0.0,52,0.00,,,0.00,,2013-08-04 19:12:00,
2013-08-04 14:22:00,78.0,61.0,30.15,NNE,22,0.0,0.0,56,0.00,,,0.00,,2013-08-04 19:22:00,
2013-08-04 14:32:00,79.0,58.0,30.15,SSE,148,0.0,0.0,49,0.00,,,0.00,,2013-08-04 19:32:00,
2013-08-04 14:43:00,79.0,58.0,30.15,SSE,148,0.0,0.0,49,0.00,,,0.00,,2013-08-04 19:43:00,
2013-08-04 14:53:00,79.0,61.0,30.14,NNE,20,0.0,0.0,54,0.00,,,0.00,,2013-08-04 19:53:00,
2013-08-04 15:02:00,78.0,58.0,30.14,North,355,0.0,0.0,51,0.00,,,0.00,,2013-08-04 20:02:00,
2013-08-04 15:12:00,78.0,58.0,30.14,North,355,0.0,0.0,51,0.00,,,0.00,,2013-08-04 20:12:00,
2013-08-04 15:22:00,78.0,58.0,30.14,East,82,0.0,0.0,50,0.00,,,0.00,,2013-08-04 20:22:00,
2013-08-04 15:33:00,78.0,61.0,30.14,North,355,0.0,0.0,55,0.00,,,0.00,,2013-08-04 20:33:00,
2013-08-04 15:42:00,78.0,61.0,30.14,North,355,0.0,0.0,55,0.00,,,0.00,,2013-08-04 20:42:00,
2013-08-04 15:53:00,78.0,59.0,30.14,North,355,0.0,0.0,53,0.00,,,0.00,,2013-08-04 20:53:00,
2013-08-04 16:02:00,78.0,62.0,30.14,East,90,0.0,0.0,58,0.00,,,0.00,,2013-08-04 21:02:00,
2013-08-04 16:12:00,78.0,62.0,30.14,East,90,0.0,0.0,58,0.00,,,0.00,,2013-08-04 21:12:00,
2013-08-04 16:22:00,78.0,59.0,30.13,ENE,78,0.0,0.0,52,0.00,,,0.00,,2013-08-04 21:22:00,
2013-08-04 16:32:00,78.0,59.0,30.13,East,80,0.0,0.0,53,0.00,,,0.00,,2013-08-04 21:32:00,
2013-08-04 16:43:00,78.0,59.0,30.13,East,80,0.0,0.0,53,0.00,,,0.00,,2013-08-04 21:43:00,
2013-08-04 16:53:00,78.0,61.0,30.14,NNE,22,0.0,0.0,55,0.00,,,0.00,,2013-08-04 21:53:00,
2013-08-04 17:02:00,77.0,59.0,30.13,ENE,76,0.0,0.0,54,0.00,,,0.00,,2013-08-04 22:02:00,
2013-08-04 17:12:00,77.0,59.0,30.13,ENE,76,0.0,0.0,54,0.00,,,0.00,,2013-08-04 22:12:00,
2013-08-04 17:22:00,77.0,62.0,30.13,ENE,67,0.0,0.0,59,0.00,,,0.00,,2013-08-04 22:22:00,
2013-08-04 17:32:00,76.0,61.0,30.13,ENE,75,0.0,0.0,60,0.00,,,0.00,,2013-08-04 22:32:00,
2013-08-04 17:43:00,76.0,61.0,30.13,ENE,75,0.0,0.0,60,0.00,,,0.00,,2013-08-04 22:43:00,
2013-08-04 17:53:00,76.0,62.0,30.12,ENE,75,0.0,0.0,62,0.00,,,0.00,,2013-08-04 22:53:00,
2013-08-04 18:02:00,76.0,62.0,30.12,ENE,75,0.0,0.0,62,0.00,,,0.00,,2013-08-04 23:02:00,
2013-08-04 18:12:00,76.0,62.0,30.12,ENE,75,0.0,0.0,62,0.00,,,0.00,,2013-08-04 23:12:00,
2013-08-04 18:22:00,75.0,63.0,30.12,ENE,75,0.0,0.0,66,0.00,,,0.00,,2013-08-04 23:22:00,
2013-08-04 18:32:00,74.0,63.0,30.12,ENE,75,0.0,0.0,69,0.00,,,0.00,,2013-08-04 23:32:00,
2013-08-04 18:43:00,74.0,63.0,30.12,ENE,75,0.0,0.0,69,0.00,,,0.00,,2013-08-04 23:43:00,
2013-08-04 18:53:00,73.0,63.0,30.12,ENE,75,0.0,0.0,71,0.00,,,0.00,,2013-08-04 23:53:00,
2013-08-04 19:02:00,73.0,63.0,30.12,ENE,75,0.0,0.0,72,0.00,,,0.00,,2013-08-05 00:02:00,
2013-08-04 19:12:00,73.0,63.0,30.12,ENE,75,0.0,0.0,72,0.00,,,0.00,,2013-08-05 00:12:00,
2013-08-04 19:22:00,72.0,63.0,30.12,ENE,75,0.0,0.0,73,0.00,,,0.00,,2013-08-05 00:22:00,
2013-08-04 19:33:00,72.0,64.0,30.12,ENE,75,0.0,0.0,76,0.00,,,0.00,,2013-08-05 00:33:00,
2013-08-04 19:42:00,72.0,64.0,30.12,ENE,75,0.0,0.0,76,0.00,,,0.00,,2013-08-05 00:42:00,
2013-08-04 19:53:00,71.0,64.0,30.12,ENE,75,0.0,0.0,78,0.00,,,0.00,,2013-08-05 00:53:00,
2013-08-04 20:02:00,71.0,66.0,30.13,ENE,75,0.0,0.0,83,0.00,,,0.00,,2013-08-05 01:02:00,
2013-08-04 20:12:00,71.0,66.0,30.13,ENE,75,0.0,0.0,83,0.00,,,0.00,,2013-08-05 01:12:00,
2013-08-04 20:22:00,70.0,65.0,30.12,ENE,75,0.0,0.0,83,0.00,,,0.00,,2013-08-05 01:22:00,
2013-08-04 20:33:00,68.0,64.0,30.12,ENE,75,0.0,0.0,87,0.00,,,0.00,,2013-08-05 01:33:00,
2013-08-04 20:42:00,68.0,64.0,30.12,ENE,75,0.0,0.0,87,0.00,,,0.00,,2013-08-05 01:42:00,
2013-08-04 20:52:00,68.0,64.0,30.13,ENE,75,0.0,0.0,88,0.00,,,0.00,,2013-08-05 01:52:00,
2013-08-04 21:02:00,67.0,64.0,30.13,ENE,76,0.0,0.0,90,0.00,,,0.00,,2013-08-05 02:02:00,
2013-08-04 21:12:00,67.0,64.0,30.13,ENE,76,0.0,0.0,90,0.00,,,0.00,,2013-08-05 02:12:00,
2013-08-04 21:22:00,67.0,64.0,30.13,ENE,76,0.0,0.0,90,0.00,,,0.00,,2013-08-05 02:22:00,
2013-08-04 21:33:00,67.0,64.0,30.13,ENE,76,0.0,0.0,90,0.00,,,0.00,,2013-08-05 02:33:00,
2013-08-04 21:43:00,67.0,64.0,30.13,ENE,76,0.0,0.0,90,0.00,,,0.00,,2013-08-05 02:43:00,
2013-08-04 21:53:00,66.0,63.0,30.12,ENE,76,0.0,0.0,91,0.00,,,0.00,,2013-08-05 02:53:00,
2013-08-04 22:02:00,66.0,64.0,30.13,ENE,76,0.0,0.0,92,0.00,,,0.00,,2013-08-05 03:02:00,
2013-08-04 22:12:00,66.0,64.0,30.13,ENE,76,0.0,0.0,92,0.00,,,0.00,,2013-08-05 03:12:00,
2013-08-04 22:22:00,66.0,64.0,30.13,ENE,76,0.0,0.0,92,0.00,,,0.00,,2013-08-05 03:22:00,
2013-08-04 22:32:00,65.0,62.0,30.13,ENE,76,0.0,0.0,91,0.00,,,0.00,,2013-08-05 03:32:00,
2013-08-04 22:42:00,65.0,62.0,30.13,ENE,76,0.0,0.0,91,0.00,,,0.00,,2013-08-05 03:42:00,
2013-08-04 22:52:00,65.0,63.0,30.13,ENE,76,0.0,0.0,93,0.00,,,0.00,,2013-08-05 03:52:00,
2013-08-04 23:02:00,65.0,63.0,30.13,ENE,76,0.0,0.0,92,0.00,,,0.00,,2013-08-05 04:02:00,
2013-08-04 23:12:00,65.0,63.0,30.13,ENE,76,0.0,0.0,92,0.00,,,0.00,,2013-08-05 04:12:00,
2013-08-04 23:22:00,65.0,63.0,30.12,ENE,76,0.0,0.0,93,0.00,,,0.00,,2013-08-05 04:22:00,
2013-08-04 23:32:00,65.0,63.0,30.12,ENE,76,0.0,0.0,93,0.00,,,0.00,,2013-08-05 04:32:00,
2013-08-04 23:43:00,64.0,62.0,30.12,ENE,76,0.0,0.0,93,0.00,,,0.00,,2013-08-05 04:43:00,
2013-08-04 23:52:00,64.0,62.0,30.12,ENE,76,0.0,0.0,93,0.00,,,0.00,,2013-08-05 04:52:00,